owner,sensor,date,latitude,longitude,air_pressure(mBar),qcFlag 
TABS,ioos:station:wmo:42047:1,2016-06-01T00:00:00Z,27.8966,-93.5973,1010.83,11111222 
TABS,ioos:station:wmo:42047:1,2016-06-01T00:30:00Z,27.8966,-93.5973,1011.45,11111222 
TABS,ioos:station:wmo:42047:1,2016-06-01T01:00:00Z,27.8966,-93.5973,1012.03,11111222 
TABS,ioos:station:wmo:42047:1,2016-06-01T01:30:00Z,27.8966,-93.5973,1011.66,11111222 
TABS,ioos:station:wmo:42047:1,2016-06-01T02:00:00Z,27.8966,-93.5973,1012.1,11111222 
TABS,ioos:station:wmo:42047:1,2016-06-01T02:30:00Z,27.8966,-93.5973,1013.05,11111222 
TABS,ioos:station:wmo:42047:1,2016-06-01T03:00:00Z,27.8966,-93.5973,1013.71,11111222 
TABS,ioos:station:wmo:42047:1,2016-06-01T03:30:00Z,27.8966,-93.5973,1013.97,11111222 
TABS,ioos:station:wmo:42047:1,2016-06-01T04:00:00Z,27.8966,-93.5973,1014.34,11111222 
TABS,ioos:station:wmo:42047:1,2016-06-01T04:30:00Z,27.8966,-93.5973,1013.93,11111222 
TABS,ioos:station:wmo:42047:1,2016-06-01T05:00:00Z,27.8966,-93.5973,1013.47,11111222 
TABS,ioos:station:wmo:42047:1,2016-06-01T05:30:00Z,27.8966,-93.5973,1013.3,11111222 
TABS,ioos:station:wmo:42047:1,2016-06-01T06:00:00Z,27.8966,-93.5973,1012.95,11111222 
TABS,ioos:station:wmo:42047:1,2016-06-01T06:30:00Z,27.8966,-93.5973,1012.73,11111222 
TABS,ioos:station:wmo:42047:1,2016-06-01T07:00:00Z,27.8966,-93.5973,1011.92,11111222 
TABS,ioos:station:wmo:42047:1,2016-06-01T07:30:00Z,27.8966,-93.5973,1010.97,11111222 
TABS,ioos:station:wmo:42047:1,2016-06-01T08:00:00Z,27.8966,-93.5973,1010.38,11111222 
TABS,ioos:station:wmo:42047:1,2016-06-01T08:30:00Z,27.8966,-93.5973,1010.53,11111222 
TABS,ioos:station:wmo:42047:1,2016-06-01T09:00:00Z,27.8966,-93.5973,1010.59,11111222 
TABS,ioos:station:wmo:42047:1,2016-06-01T09:30:00Z,27.8966,-93.5973,1011.3,11111222 
TABS,ioos:station:wmo:42047:1,2016-06-01T10:00:00Z,27.8966,-93.5973,1010.86,11111222 
TABS,ioos:station:wmo:42047:1,2016-06-01T10:30:00Z,27.8966,-93.5973,1010.97,11111222 
TABS,ioos:station:wmo:42047:1,2016-06-01T11:00:00Z,27.8966,-93.5973,1011.61,11111222 
TABS,ioos:station:wmo:42047:1,2016-06-01T11:30:00Z,27.8966,-93.5973,1011.28,11111222 
TABS,ioos:station:wmo:42047:1,2016-06-01T12:00:00Z,27.8966,-93.5973,1012.53,11111222 
TABS,ioos:station:wmo:42047:1,2016-06-01T12:30:00Z,27.8966,-93.5973,1012.9,11111222 
TABS,ioos:station:wmo:42047:1,2016-06-01T13:00:00Z,27.8966,-93.5973,1012.92,11111222 
TABS,ioos:station:wmo:42047:1,2016-06-01T13:30:00Z,27.8966,-93.5973,1013.49,11111222 
TABS,ioos:station:wmo:42047:1,2016-06-01T14:00:00Z,27.8966,-93.5973,1013.84,11111222 
TABS,ioos:station:wmo:42047:1,2016-06-01T14:30:00Z,27.8966,-93.5973,1013.99,11111222 
TABS,ioos:station:wmo:42047:1,2016-06-01T15:00:00Z,27.8966,-93.5973,1014.06,11111222 
TABS,ioos:station:wmo:42047:1,2016-06-01T15:30:00Z,27.8966,-93.5973,1014.1,11111222 
TABS,ioos:station:wmo:42047:1,2016-06-01T16:00:00Z,27.8966,-93.5973,1014.11,11111222 
TABS,ioos:station:wmo:42047:1,2016-06-01T16:30:00Z,27.8966,-93.5973,1014.18,11111222 
TABS,ioos:station:wmo:42047:1,2016-06-01T17:00:00Z,27.8966,-93.5973,1013.85,11111222 
TABS,ioos:station:wmo:42047:1,2016-06-01T17:30:00Z,27.8966,-93.5973,1014.01,11111222 
TABS,ioos:station:wmo:42047:1,2016-06-01T18:00:00Z,27.8966,-93.5973,1013.46,11111222 
TABS,ioos:station:wmo:42047:1,2016-06-01T18:30:00Z,27.8966,-93.5973,1013.52,11111222 
TABS,ioos:station:wmo:42047:1,2016-06-01T19:00:00Z,27.8966,-93.5973,1013.29,11111222 
TABS,ioos:station:wmo:42047:1,2016-06-01T19:30:00Z,27.8966,-93.5973,1013.2,11111222 
TABS,ioos:station:wmo:42047:1,2016-06-01T20:00:00Z,27.8966,-93.5973,1012.8,11111222 
TABS,ioos:station:wmo:42047:1,2016-06-01T20:30:00Z,27.8966,-93.5973,1012.31,11111222 
TABS,ioos:station:wmo:42047:1,2016-06-01T21:00:00Z,27.8966,-93.5973,1012.14,11111222 
TABS,ioos:station:wmo:42047:1,2016-06-01T21:30:00Z,27.8966,-93.5973,1012.31,11111222 
TABS,ioos:station:wmo:42047:1,2016-06-01T22:00:00Z,27.8966,-93.5973,1011.69,11111222 
TABS,ioos:station:wmo:42047:1,2016-06-01T22:30:00Z,27.8966,-93.5973,1011.87,11111222 
TABS,ioos:station:wmo:42047:1,2016-06-01T23:00:00Z,27.8966,-93.5973,1011.64,11111222 
TABS,ioos:station:wmo:42047:1,2016-06-01T23:30:00Z,27.8966,-93.5973,1011.71,11111222 
TABS,ioos:station:wmo:42047:1,2016-06-02T00:00:00Z,27.8966,-93.5973,1011.64,11111222 
TABS,ioos:station:wmo:42047:1,2016-06-02T00:30:00Z,27.8966,-93.5973,1011.93,11111222 
TABS,ioos:station:wmo:42047:1,2016-06-02T01:00:00Z,27.8966,-93.5973,1011.99,11111222 
TABS,ioos:station:wmo:42047:1,2016-06-02T01:30:00Z,27.8966,-93.5973,1012.14,11111222 
TABS,ioos:station:wmo:42047:1,2016-06-02T02:00:00Z,27.8966,-93.5973,1012.38,11111222 
TABS,ioos:station:wmo:42047:1,2016-06-02T02:30:00Z,27.8966,-93.5973,1012.78,11111222 
TABS,ioos:station:wmo:42047:1,2016-06-02T03:00:00Z,27.8966,-93.5973,1012.83,11111222 
TABS,ioos:station:wmo:42047:1,2016-06-02T03:30:00Z,27.8966,-93.5973,1013.28,11111222 
TABS,ioos:station:wmo:42047:1,2016-06-02T04:00:00Z,27.8966,-93.5973,1013.04,11111222 
TABS,ioos:station:wmo:42047:1,2016-06-02T04:30:00Z,27.8966,-93.5973,1013.17,11111222 
TABS,ioos:station:wmo:42047:1,2016-06-02T05:00:00Z,27.8966,-93.5973,1013.18,11111222 
TABS,ioos:station:wmo:42047:1,2016-06-02T05:30:00Z,27.8966,-93.5973,1013.23,11111222 
TABS,ioos:station:wmo:42047:1,2016-06-02T06:00:00Z,27.8966,-93.5973,1013.15,11111222 
TABS,ioos:station:wmo:42047:1,2016-06-02T06:30:00Z,27.8966,-93.5973,1013.08,11111222 
TABS,ioos:station:wmo:42047:1,2016-06-02T07:00:00Z,27.8966,-93.5973,1013.21,11111222 
TABS,ioos:station:wmo:42047:1,2016-06-02T07:30:00Z,27.8966,-93.5973,1013.14,11111222 
TABS,ioos:station:wmo:42047:1,2016-06-02T08:00:00Z,27.8966,-93.5973,1013.07,11111222 
TABS,ioos:station:wmo:42047:1,2016-06-02T08:30:00Z,27.8966,-93.5973,1013.24,11111222 
TABS,ioos:station:wmo:42047:1,2016-06-02T09:00:00Z,27.8966,-93.5973,1013.06,11111222 
TABS,ioos:station:wmo:42047:1,2016-06-02T09:30:00Z,27.8966,-93.5973,1012.8,11111222 
TABS,ioos:station:wmo:42047:1,2016-06-02T10:00:00Z,27.8966,-93.5973,1012.52,11111222 
TABS,ioos:station:wmo:42047:1,2016-06-02T10:30:00Z,27.8966,-93.5973,1012.55,11111222 
TABS,ioos:station:wmo:42047:1,2016-06-02T11:00:00Z,27.8966,-93.5973,1012.91,11111222 
TABS,ioos:station:wmo:42047:1,2016-06-02T11:30:00Z,27.8966,-93.5973,1012.83,11111222 
TABS,ioos:station:wmo:42047:1,2016-06-02T12:00:00Z,27.8966,-93.5973,1012.93,11111222 
TABS,ioos:station:wmo:42047:1,2016-06-02T12:30:00Z,27.8966,-93.5973,1013.19,11111222 
TABS,ioos:station:wmo:42047:1,2016-06-02T13:00:00Z,27.8966,-93.5973,1013.48,11111222 
TABS,ioos:station:wmo:42047:1,2016-06-02T13:30:00Z,27.8966,-93.5973,1013.42,11111222 
TABS,ioos:station:wmo:42047:1,2016-06-02T14:00:00Z,27.8966,-93.5973,1013.6,11111222 
TABS,ioos:station:wmo:42047:1,2016-06-02T14:30:00Z,27.8966,-93.5973,1013.76,11111222 
TABS,ioos:station:wmo:42047:1,2016-06-02T15:00:00Z,27.8966,-93.5973,1014.19,11111222 
TABS,ioos:station:wmo:42047:1,2016-06-02T15:30:00Z,27.8966,-93.5973,1014.09,11111222 
TABS,ioos:station:wmo:42047:1,2016-06-02T16:00:00Z,27.8966,-93.5973,1013.93,11111222 
TABS,ioos:station:wmo:42047:1,2016-06-02T16:30:00Z,27.8966,-93.5973,1013.62,11111222 
TABS,ioos:station:wmo:42047:1,2016-06-02T17:00:00Z,27.8966,-93.5973,1013.83,11111222 
TABS,ioos:station:wmo:42047:1,2016-06-02T17:30:00Z,27.8966,-93.5973,1013.43,11111222 
TABS,ioos:station:wmo:42047:1,2016-06-02T18:00:00Z,27.8966,-93.5973,1013.53,11111222 
TABS,ioos:station:wmo:42047:1,2016-06-02T18:30:00Z,27.8966,-93.5973,1013.43,11111222 
TABS,ioos:station:wmo:42047:1,2016-06-02T19:00:00Z,27.8966,-93.5973,1013.36,11111222 
TABS,ioos:station:wmo:42047:1,2016-06-02T19:30:00Z,27.8966,-93.5973,1013.19,11111222 
TABS,ioos:station:wmo:42047:1,2016-06-02T20:00:00Z,27.8966,-93.5973,1012.98,11111222 
TABS,ioos:station:wmo:42047:1,2016-06-02T20:30:00Z,27.8966,-93.5973,1013.0,11111222 
TABS,ioos:station:wmo:42047:1,2016-06-02T21:00:00Z,27.8966,-93.5973,1013.28,11111222 
TABS,ioos:station:wmo:42047:1,2016-06-02T21:30:00Z,27.8966,-93.5973,1013.05,11111222 
TABS,ioos:station:wmo:42047:1,2016-06-02T22:00:00Z,27.8966,-93.5973,1014.23,11111222 
TABS,ioos:station:wmo:42047:1,2016-06-02T22:30:00Z,27.8966,-93.5973,1013.52,11111222 
TABS,ioos:station:wmo:42047:1,2016-06-02T23:00:00Z,27.8966,-93.5973,1013.48,11111222 
TABS,ioos:station:wmo:42047:1,2016-06-02T23:30:00Z,27.8966,-93.5973,1013.31,11111222 
TABS,ioos:station:wmo:42047:1,2016-06-03T00:00:00Z,27.8966,-93.5973,1013.19,11111222 
TABS,ioos:station:wmo:42047:1,2016-06-03T00:30:00Z,27.8966,-93.5973,1012.91,11111222 
TABS,ioos:station:wmo:42047:1,2016-06-03T01:00:00Z,27.8966,-93.5973,1013.5,11111222 
TABS,ioos:station:wmo:42047:1,2016-06-03T01:30:00Z,27.8966,-93.5973,1013.48,11111222 
TABS,ioos:station:wmo:42047:1,2016-06-03T02:00:00Z,27.8966,-93.5973,1014.11,11111222 
TABS,ioos:station:wmo:42047:1,2016-06-03T02:30:00Z,27.8966,-93.5973,1014.43,11111222 
TABS,ioos:station:wmo:42047:1,2016-06-03T03:00:00Z,27.8966,-93.5973,1013.96,11111222 
TABS,ioos:station:wmo:42047:1,2016-06-03T03:30:00Z,27.8966,-93.5973,1014.47,11111222 
TABS,ioos:station:wmo:42047:1,2016-06-03T04:00:00Z,27.8966,-93.5973,1014.01,11111222 
TABS,ioos:station:wmo:42047:1,2016-06-03T04:30:00Z,27.8966,-93.5973,1013.79,11111222 
TABS,ioos:station:wmo:42047:1,2016-06-03T05:00:00Z,27.8966,-93.5973,1013.73,11111222 
TABS,ioos:station:wmo:42047:1,2016-06-03T05:30:00Z,27.8966,-93.5973,1013.56,11111222 
TABS,ioos:station:wmo:42047:1,2016-06-03T06:00:00Z,27.8966,-93.5973,1013.42,11111222 
TABS,ioos:station:wmo:42047:1,2016-06-03T06:30:00Z,27.8966,-93.5973,1013.1,11111222 
TABS,ioos:station:wmo:42047:1,2016-06-03T07:00:00Z,27.8966,-93.5973,1012.94,11111222 
TABS,ioos:station:wmo:42047:1,2016-06-03T07:30:00Z,27.8966,-93.5973,1012.67,11111222 
TABS,ioos:station:wmo:42047:1,2016-06-03T08:00:00Z,27.8966,-93.5973,1012.64,11111222 
TABS,ioos:station:wmo:42047:1,2016-06-03T08:30:00Z,27.8966,-93.5973,1011.82,11111222 
TABS,ioos:station:wmo:42047:1,2016-06-03T09:00:00Z,27.8966,-93.5973,1011.45,11111222 
TABS,ioos:station:wmo:42047:1,2016-06-03T09:30:00Z,27.8966,-93.5973,1011.09,11111222 
TABS,ioos:station:wmo:42047:1,2016-06-03T10:00:00Z,27.8966,-93.5973,1011.42,11111222 
TABS,ioos:station:wmo:42047:1,2016-06-03T10:30:00Z,27.8966,-93.5973,1011.29,11111222 
TABS,ioos:station:wmo:42047:1,2016-06-03T11:00:00Z,27.8966,-93.5973,1011.84,11111222 
TABS,ioos:station:wmo:42047:1,2016-06-03T11:30:00Z,27.8966,-93.5973,1012.03,11111222 
TABS,ioos:station:wmo:42047:1,2016-06-03T12:00:00Z,27.8966,-93.5973,1012.5,11111222 
TABS,ioos:station:wmo:42047:1,2016-06-03T12:30:00Z,27.8966,-93.5973,1013.22,11111222 
TABS,ioos:station:wmo:42047:1,2016-06-03T13:00:00Z,27.8966,-93.5973,1013.27,11111222 
TABS,ioos:station:wmo:42047:1,2016-06-03T13:30:00Z,27.8966,-93.5973,1013.12,11111222 
TABS,ioos:station:wmo:42047:1,2016-06-03T14:00:00Z,27.8966,-93.5973,1013.4,11111222 
TABS,ioos:station:wmo:42047:1,2016-06-03T14:30:00Z,27.8966,-93.5973,1013.67,11111222 
TABS,ioos:station:wmo:42047:1,2016-06-03T15:00:00Z,27.8966,-93.5973,1014.03,11111222 
TABS,ioos:station:wmo:42047:1,2016-06-03T15:30:00Z,27.8966,-93.5973,1014.35,11111222 
TABS,ioos:station:wmo:42047:1,2016-06-03T16:00:00Z,27.8966,-93.5973,1014.27,11111222 
TABS,ioos:station:wmo:42047:1,2016-06-03T16:30:00Z,27.8966,-93.5973,1013.83,11111222 
TABS,ioos:station:wmo:42047:1,2016-06-03T17:00:00Z,27.8966,-93.5973,1013.93,11111222 
TABS,ioos:station:wmo:42047:1,2016-06-03T17:30:00Z,27.8966,-93.5973,1013.15,11111222 
TABS,ioos:station:wmo:42047:1,2016-06-03T18:00:00Z,27.8966,-93.5973,1012.79,11111222 
TABS,ioos:station:wmo:42047:1,2016-06-03T18:30:00Z,27.8966,-93.5973,1013.02,11111222 
TABS,ioos:station:wmo:42047:1,2016-06-03T19:00:00Z,27.8966,-93.5973,1013.07,11111222 
TABS,ioos:station:wmo:42047:1,2016-06-03T19:30:00Z,27.8966,-93.5973,1012.73,11111222 
TABS,ioos:station:wmo:42047:1,2016-06-03T20:00:00Z,27.8966,-93.5973,1012.49,11111222 
TABS,ioos:station:wmo:42047:1,2016-06-03T20:30:00Z,27.8966,-93.5973,1012.1,11111222 
TABS,ioos:station:wmo:42047:1,2016-06-03T21:00:00Z,27.8966,-93.5973,1011.83,11111222 
TABS,ioos:station:wmo:42047:1,2016-06-03T21:30:00Z,27.8966,-93.5973,1011.35,11111222 
TABS,ioos:station:wmo:42047:1,2016-06-03T22:00:00Z,27.8966,-93.5973,1011.14,11111222 
TABS,ioos:station:wmo:42047:1,2016-06-03T22:30:00Z,27.8966,-93.5973,1011.26,11111222 
TABS,ioos:station:wmo:42047:1,2016-06-03T23:00:00Z,27.8966,-93.5973,1011.43,11111222 
TABS,ioos:station:wmo:42047:1,2016-06-03T23:30:00Z,27.8966,-93.5973,1011.55,11111222 
TABS,ioos:station:wmo:42047:1,2016-06-04T00:00:00Z,27.8966,-93.5973,1011.68,11111222 
TABS,ioos:station:wmo:42047:1,2016-06-04T00:30:00Z,27.8966,-93.5973,1011.82,11111222 
TABS,ioos:station:wmo:42047:1,2016-06-04T01:00:00Z,27.8966,-93.5973,1011.72,11111222 
TABS,ioos:station:wmo:42047:1,2016-06-04T01:30:00Z,27.8966,-93.5973,1011.81,11111222 
TABS,ioos:station:wmo:42047:1,2016-06-04T02:00:00Z,27.8966,-93.5973,1011.83,11111222 
TABS,ioos:station:wmo:42047:1,2016-06-04T02:30:00Z,27.8966,-93.5973,1012.01,11111222 
TABS,ioos:station:wmo:42047:1,2016-06-04T03:00:00Z,27.8966,-93.5973,1012.57,11111222 
TABS,ioos:station:wmo:42047:1,2016-06-04T03:30:00Z,27.8966,-93.5973,1012.62,11111222 
TABS,ioos:station:wmo:42047:1,2016-06-04T04:00:00Z,27.8966,-93.5973,1013.01,11111222 
TABS,ioos:station:wmo:42047:1,2016-06-04T04:30:00Z,27.8966,-93.5973,1013.04,11111222 
TABS,ioos:station:wmo:42047:1,2016-06-04T05:00:00Z,27.8966,-93.5973,1013.13,11111222 
TABS,ioos:station:wmo:42047:1,2016-06-04T05:30:00Z,27.8966,-93.5973,1012.62,11111222 
TABS,ioos:station:wmo:42047:1,2016-06-04T06:00:00Z,27.8966,-93.5973,1012.14,11111222 
TABS,ioos:station:wmo:42047:1,2016-06-04T06:30:00Z,27.8966,-93.5973,1011.81,11111222 
TABS,ioos:station:wmo:42047:1,2016-06-04T07:00:00Z,27.8966,-93.5973,1011.25,11111222 
TABS,ioos:station:wmo:42047:1,2016-06-04T07:30:00Z,27.8966,-93.5973,1011.38,11111222 
TABS,ioos:station:wmo:42047:1,2016-06-04T08:00:00Z,27.8966,-93.5973,1010.97,11111222 
TABS,ioos:station:wmo:42047:1,2016-06-04T08:30:00Z,27.8966,-93.5973,1010.49,11111222 
TABS,ioos:station:wmo:42047:1,2016-06-04T09:00:00Z,27.8966,-93.5973,1010.1,11111222 
TABS,ioos:station:wmo:42047:1,2016-06-04T09:30:00Z,27.8966,-93.5973,1010.09,11111222 
TABS,ioos:station:wmo:42047:1,2016-06-04T10:00:00Z,27.8966,-93.5973,1009.97,11111222 
TABS,ioos:station:wmo:42047:1,2016-06-04T10:30:00Z,27.8966,-93.5973,1010.08,11111222 
TABS,ioos:station:wmo:42047:1,2016-06-04T11:00:00Z,27.8966,-93.5973,1009.96,11111222 
TABS,ioos:station:wmo:42047:1,2016-06-04T11:30:00Z,27.8966,-93.5973,1010.28,11111222 
TABS,ioos:station:wmo:42047:1,2016-06-04T12:00:00Z,27.8966,-93.5973,1009.98,11111222 
TABS,ioos:station:wmo:42047:1,2016-06-04T12:30:00Z,27.8966,-93.5973,1010.18,11111222 
TABS,ioos:station:wmo:42047:1,2016-06-04T13:00:00Z,27.8966,-93.5973,1009.98,11111222 
TABS,ioos:station:wmo:42047:1,2016-06-04T13:30:00Z,27.8966,-93.5973,1009.54,11111222 
TABS,ioos:station:wmo:42047:1,2016-06-04T14:00:00Z,27.8966,-93.5973,1010.0,11111222 
TABS,ioos:station:wmo:42047:1,2016-06-04T14:30:00Z,27.8966,-93.5973,1010.39,11111222 
TABS,ioos:station:wmo:42047:1,2016-06-04T15:00:00Z,27.8966,-93.5973,1010.99,11111222 
TABS,ioos:station:wmo:42047:1,2016-06-04T15:30:00Z,27.8966,-93.5973,1010.88,11111222 
TABS,ioos:station:wmo:42047:1,2016-06-04T16:00:00Z,27.8966,-93.5973,1011.04,11111222 
TABS,ioos:station:wmo:42047:1,2016-06-04T16:30:00Z,27.8966,-93.5973,1012.16,11111222 
TABS,ioos:station:wmo:42047:1,2016-06-04T17:00:00Z,27.8966,-93.5973,1010.62,11111222 
TABS,ioos:station:wmo:42047:1,2016-06-04T17:30:00Z,27.8966,-93.5973,1010.22,11111222 
TABS,ioos:station:wmo:42047:1,2016-06-04T18:00:00Z,27.8966,-93.5973,1010.67,11111222 
TABS,ioos:station:wmo:42047:1,2016-06-04T18:30:00Z,27.8966,-93.5973,1010.49,11111222 
TABS,ioos:station:wmo:42047:1,2016-06-04T19:00:00Z,27.8966,-93.5973,1010.63,11111222 
TABS,ioos:station:wmo:42047:1,2016-06-04T19:30:00Z,27.8966,-93.5973,1010.25,11111222 
TABS,ioos:station:wmo:42047:1,2016-06-04T20:00:00Z,27.8966,-93.5973,1009.41,11111222 
TABS,ioos:station:wmo:42047:1,2016-06-04T20:30:00Z,27.8966,-93.5973,1009.01,11111222 
TABS,ioos:station:wmo:42047:1,2016-06-04T21:00:00Z,27.8966,-93.5973,1009.06,11111222 
TABS,ioos:station:wmo:42047:1,2016-06-04T21:30:00Z,27.8966,-93.5973,1009.81,11111222 
TABS,ioos:station:wmo:42047:1,2016-06-04T22:00:00Z,27.8966,-93.5973,1009.04,11111222 
TABS,ioos:station:wmo:42047:1,2016-06-04T22:30:00Z,27.8966,-93.5973,1008.31,11111222 
TABS,ioos:station:wmo:42047:1,2016-06-04T23:00:00Z,27.8966,-93.5973,1008.83,11111222 
TABS,ioos:station:wmo:42047:1,2016-06-04T23:30:00Z,27.8966,-93.5973,1009.32,11111222 
TABS,ioos:station:wmo:42047:1,2016-06-05T00:00:00Z,27.8966,-93.5973,1009.39,11111222 
TABS,ioos:station:wmo:42047:1,2016-06-05T00:30:00Z,27.8966,-93.5973,1009.77,11111222 
TABS,ioos:station:wmo:42047:1,2016-06-05T01:00:00Z,27.8966,-93.5973,1009.36,11111222 
TABS,ioos:station:wmo:42047:1,2016-06-05T01:30:00Z,27.8966,-93.5973,1009.55,11111222 
TABS,ioos:station:wmo:42047:1,2016-06-05T02:00:00Z,27.8966,-93.5973,1009.49,11111222 
TABS,ioos:station:wmo:42047:1,2016-06-05T02:30:00Z,27.8966,-93.5973,1009.43,11111222 
TABS,ioos:station:wmo:42047:1,2016-06-05T03:00:00Z,27.8966,-93.5973,1009.95,11111222 
TABS,ioos:station:wmo:42047:1,2016-06-05T03:30:00Z,27.8966,-93.5973,1009.74,11111222 
TABS,ioos:station:wmo:42047:1,2016-06-05T04:00:00Z,27.8966,-93.5973,1009.96,11111222 
TABS,ioos:station:wmo:42047:1,2016-06-05T04:30:00Z,27.8966,-93.5973,1010.2,11111222 
TABS,ioos:station:wmo:42047:1,2016-06-05T05:00:00Z,27.8966,-93.5973,1009.68,11111222 
TABS,ioos:station:wmo:42047:1,2016-06-05T05:30:00Z,27.8966,-93.5973,1009.75,11111222 
TABS,ioos:station:wmo:42047:1,2016-06-05T06:00:00Z,27.8966,-93.5973,1009.54,11111222 
TABS,ioos:station:wmo:42047:1,2016-06-05T06:30:00Z,27.8966,-93.5973,1009.5,11111222 
TABS,ioos:station:wmo:42047:1,2016-06-05T07:00:00Z,27.8966,-93.5973,1009.14,11111222 
TABS,ioos:station:wmo:42047:1,2016-06-05T07:30:00Z,27.8966,-93.5973,1008.45,11111222 
TABS,ioos:station:wmo:42047:1,2016-06-05T08:00:00Z,27.8966,-93.5973,1007.98,11111222 
TABS,ioos:station:wmo:42047:1,2016-06-05T08:30:00Z,27.8966,-93.5973,1007.75,11111222 
TABS,ioos:station:wmo:42047:1,2016-06-05T09:00:00Z,27.8966,-93.5973,1007.97,11111222 
TABS,ioos:station:wmo:42047:1,2016-06-05T09:30:00Z,27.8966,-93.5973,1008.13,11111222 
TABS,ioos:station:wmo:42047:1,2016-06-05T10:00:00Z,27.8966,-93.5973,1008.04,11111222 
TABS,ioos:station:wmo:42047:1,2016-06-05T10:30:00Z,27.8966,-93.5973,1007.85,11111222 
TABS,ioos:station:wmo:42047:1,2016-06-05T11:00:00Z,27.8966,-93.5973,1008.33,11111222 
TABS,ioos:station:wmo:42047:1,2016-06-05T11:30:00Z,27.8966,-93.5973,1008.5,11111222 
TABS,ioos:station:wmo:42047:1,2016-06-05T12:00:00Z,27.8966,-93.5973,1008.48,11111222 
TABS,ioos:station:wmo:42047:1,2016-06-05T12:30:00Z,27.8966,-93.5973,1008.44,11111222 
TABS,ioos:station:wmo:42047:1,2016-06-05T13:00:00Z,27.8966,-93.5973,1009.2,11111222 
TABS,ioos:station:wmo:42047:1,2016-06-05T13:30:00Z,27.8966,-93.5973,1009.21,11111222 
TABS,ioos:station:wmo:42047:1,2016-06-05T14:00:00Z,27.8966,-93.5973,1009.43,11111222 
TABS,ioos:station:wmo:42047:1,2016-06-05T14:30:00Z,27.8966,-93.5973,1009.56,11111222 
TABS,ioos:station:wmo:42047:1,2016-06-05T15:00:00Z,27.8966,-93.5973,1009.49,11111222 
TABS,ioos:station:wmo:42047:1,2016-06-05T15:30:00Z,27.8966,-93.5973,1009.5,11111222 
TABS,ioos:station:wmo:42047:1,2016-06-05T16:00:00Z,27.8966,-93.5973,1009.53,11111222 
TABS,ioos:station:wmo:42047:1,2016-06-05T16:30:00Z,27.8966,-93.5973,1009.43,11111222 
TABS,ioos:station:wmo:42047:1,2016-06-05T17:00:00Z,27.8966,-93.5973,1009.63,11111222 
TABS,ioos:station:wmo:42047:1,2016-06-05T17:30:00Z,27.8966,-93.5973,1009.7,11111222 
TABS,ioos:station:wmo:42047:1,2016-06-05T18:00:00Z,27.8966,-93.5973,1009.49,11111222 
TABS,ioos:station:wmo:42047:1,2016-06-05T18:30:00Z,27.8966,-93.5973,1009.46,11111222 
TABS,ioos:station:wmo:42047:1,2016-06-05T19:00:00Z,27.8966,-93.5973,1009.21,11111222 
TABS,ioos:station:wmo:42047:1,2016-06-05T19:30:00Z,27.8966,-93.5973,1008.92,11111222 
TABS,ioos:station:wmo:42047:1,2016-06-05T20:00:00Z,27.8966,-93.5973,1009.01,11111222 
TABS,ioos:station:wmo:42047:1,2016-06-05T20:30:00Z,27.8966,-93.5973,1008.83,11111222 
TABS,ioos:station:wmo:42047:1,2016-06-05T21:00:00Z,27.8966,-93.5973,1008.61,11111222 
TABS,ioos:station:wmo:42047:1,2016-06-05T21:30:00Z,27.8966,-93.5973,1008.53,11111222 
TABS,ioos:station:wmo:42047:1,2016-06-05T22:00:00Z,27.8966,-93.5973,1008.26,11111222 
TABS,ioos:station:wmo:42047:1,2016-06-05T22:30:00Z,27.8966,-93.5973,1008.24,11111222 
TABS,ioos:station:wmo:42047:1,2016-06-05T23:00:00Z,27.8966,-93.5973,1008.41,11111222 
TABS,ioos:station:wmo:42047:1,2016-06-05T23:30:00Z,27.8966,-93.5973,1008.36,11111222 
TABS,ioos:station:wmo:42047:1,2016-06-06T00:00:00Z,27.8966,-93.5973,1008.46,11111222 
TABS,ioos:station:wmo:42047:1,2016-06-06T00:30:00Z,27.8966,-93.5973,1008.44,11111222 
TABS,ioos:station:wmo:42047:1,2016-06-06T01:00:00Z,27.8966,-93.5973,1008.63,11111222 
TABS,ioos:station:wmo:42047:1,2016-06-06T01:30:00Z,27.8966,-93.5973,1008.46,11111222 
TABS,ioos:station:wmo:42047:1,2016-06-06T02:00:00Z,27.8966,-93.5973,1008.53,11111222 
TABS,ioos:station:wmo:42047:1,2016-06-06T02:30:00Z,27.8966,-93.5973,1008.75,11111222 
TABS,ioos:station:wmo:42047:1,2016-06-06T03:00:00Z,27.8966,-93.5973,1009.04,11111222 
TABS,ioos:station:wmo:42047:1,2016-06-06T03:30:00Z,27.8966,-93.5973,1009.24,11111222 
TABS,ioos:station:wmo:42047:1,2016-06-06T04:00:00Z,27.8966,-93.5973,1009.66,11111222 
TABS,ioos:station:wmo:42047:1,2016-06-06T04:30:00Z,27.8966,-93.5973,1009.85,11111222 
TABS,ioos:station:wmo:42047:1,2016-06-06T05:00:00Z,27.8966,-93.5973,1009.65,11111222 
TABS,ioos:station:wmo:42047:1,2016-06-06T05:30:00Z,27.8966,-93.5973,1009.52,11111222 
TABS,ioos:station:wmo:42047:1,2016-06-06T06:00:00Z,27.8966,-93.5973,1009.34,11111222 
TABS,ioos:station:wmo:42047:1,2016-06-06T06:30:00Z,27.8966,-93.5973,1009.14,11111222 
TABS,ioos:station:wmo:42047:1,2016-06-06T07:00:00Z,27.8966,-93.5973,1008.76,11111222 
TABS,ioos:station:wmo:42047:1,2016-06-06T07:30:00Z,27.8966,-93.5973,1008.59,11111222 
TABS,ioos:station:wmo:42047:1,2016-06-06T08:00:00Z,27.8966,-93.5973,1008.28,11111222 
TABS,ioos:station:wmo:42047:1,2016-06-06T08:30:00Z,27.8966,-93.5973,1008.12,11111222 
TABS,ioos:station:wmo:42047:1,2016-06-06T09:00:00Z,27.8966,-93.5973,1008.12,11111222 
TABS,ioos:station:wmo:42047:1,2016-06-06T09:30:00Z,27.8966,-93.5973,1008.06,11111222 
TABS,ioos:station:wmo:42047:1,2016-06-06T10:00:00Z,27.8966,-93.5973,1007.95,11111222 
TABS,ioos:station:wmo:42047:1,2016-06-06T10:30:00Z,27.8966,-93.5973,1008.09,11111222 
TABS,ioos:station:wmo:42047:1,2016-06-06T11:00:00Z,27.8966,-93.5973,1008.22,11111222 
TABS,ioos:station:wmo:42047:1,2016-06-06T11:30:00Z,27.8966,-93.5973,1008.17,11111222 
TABS,ioos:station:wmo:42047:1,2016-06-06T12:00:00Z,27.8966,-93.5973,1008.33,11111222 
TABS,ioos:station:wmo:42047:1,2016-06-06T12:30:00Z,27.8966,-93.5973,1008.4,11111222 
TABS,ioos:station:wmo:42047:1,2016-06-06T13:00:00Z,27.8966,-93.5973,1008.72,11111222 
TABS,ioos:station:wmo:42047:1,2016-06-06T13:30:00Z,27.8966,-93.5973,1009.07,11111222 
TABS,ioos:station:wmo:42047:1,2016-06-06T14:00:00Z,27.8966,-93.5973,1009.27,11111222 
TABS,ioos:station:wmo:42047:1,2016-06-06T14:30:00Z,27.8966,-93.5973,1009.31,11111222 
TABS,ioos:station:wmo:42047:1,2016-06-06T15:00:00Z,27.8966,-93.5973,1009.28,11111222 
TABS,ioos:station:wmo:42047:1,2016-06-06T15:30:00Z,27.8966,-93.5973,1009.17,11111222 
TABS,ioos:station:wmo:42047:1,2016-06-06T16:00:00Z,27.8966,-93.5973,1009.37,11111222 
TABS,ioos:station:wmo:42047:1,2016-06-06T16:30:00Z,27.8966,-93.5973,1009.52,11111222 
TABS,ioos:station:wmo:42047:1,2016-06-06T17:00:00Z,27.8966,-93.5973,1009.42,11111222 
TABS,ioos:station:wmo:42047:1,2016-06-06T17:30:00Z,27.8966,-93.5973,1009.25,11111222 
TABS,ioos:station:wmo:42047:1,2016-06-06T18:00:00Z,27.8966,-93.5973,1009.38,11111222 
TABS,ioos:station:wmo:42047:1,2016-06-06T18:30:00Z,27.8966,-93.5973,1009.13,11111222 